Theta_e
319 319 319 320 320 320 320 319 316 314 314 314 315 316 318 321 321 321 320 320 320 320 322 322 320 318 317 317 316 317 316 317 317 317 317 317 317 317 317 317 317 316 315 314 314 315 315 316 317 316 317 318 320 321 322 321 318 320 325 326 324 322 320 319 319 319 319 319 317 317 317 316 315 315 315 315 315 315 315 314 312 312 311 311 310 310 309 308
319 319 319 320 320 321 321 320 317 314 314 315 316 317 320 322 321 321 321 320 320 320 321 322 321 318 317 317 317 316 316 318 318 317 317 317 317 317 317 316 314 313 313 312 312 313 313 315 316 316 317 318 321 321 321 322 319 320 325 324 322 320 319 318 318 317 318 317 316 316 316 315 315 314 314 314 315 315 314 313 312 311 310 310 309 308 308 307
319 319 319 320 320 321 321 321 319 314 314 315 317 319 321 322 322 322 321 320 320 320 321 322 321 318 318 317 317 317 316 319 320 316 316 317 316 316 315 315 313 312 313 312 312 313 313 315 315 316 317 318 320 320 320 321 321 320 322 322 320 319 318 317 317 317 316 316 316 316 315 315 314 314 314 314 315 314 313 313 311 311 309 308 308 306 306 305
320 319 320 320 320 321 321 321 320 316 314 315 317 320 322 323 322 322 322 321 320 321 321 322 321 319 318 317 317 316 316 321 320 316 316 316 315 315 314 313 312 312 312 312 313 314 315 316 317 317 318 319 320 320 319 320 320 320 320 320 319 317 318 317 316 316 316 315 315 315 315 315 314 314 314 314 315 314 313 312 311 310 308 307 306 305 304 304
319 319 319 320 320 321 322 322 321 318 315 315 317 320 322 323 323 323 322 321 321 321 321 322 321 319 318 317 317 316 317 322 321 316 316 315 314 313 313 313 312 312 312 313 313 315 316 317 317 317 318 319 320 320 319 319 318 317 318 318 317 316 317 316 316 316 315 314 315 315 315 314 314 315 314 314 314 314 313 312 310 308 307 306 305 304 304 303
318 319 319 320 320 321 322 322 322 319 316 315 317 320 322 322 322 323 322 321 322 321 321 322 321 319 318 317 317 317 321 322 319 315 316 315 314 313 313 313 312 312 312 313 314 315 316 317 317 317 317 317 318 318 318 318 316 317 317 317 316 316 316 316 315 316 314 314 314 314 314 313 314 314 314 314 314 313 313 310 308 307 306 305 304 303 302 302
317 317 318 318 318 320 321 322 322 321 318 316 317 319 321 321 322 323 322 322 322 322 321 322 322 320 318 318 320 320 321 319 316 315 315 314 314 314 313 313 312 312 312 313 314 315 317 318 317 316 316 317 318 317 318 317 316 317 318 317 316 315 316 315 315 315 314 314 314 314 313 314 314 314 314 314 313 312 311 309 307 306 305 304 303 302 301 301
315 315 316 317 317 318 320 321 322 322 320 318 317 318 319 320 321 322 322 322 322 322 321 321 322 320 318 318 322 323 320 317 315 314 314 314 314 314 313 313 312 311 312 314 313 314 317 318 316 317 316 318 318 316 317 316 316 318 317 317 315 315 315 314 314 314 313 313 313 313 313 314 314 314 314 314 313 311 310 308 306 305 304 303 302 301 301 300
314 314 315 315 316 317 319 321 322 323 321 319 318 318 318 319 320 321 322 322 322 322 321 321 321 320 318 317 320 322 320 316 314 314 314 314 314 314 313 312 312 311 313 314 313 313 315 315 316 315 315 317 317 315 316 315 316 317 316 316 315 316 315 314 314 313 313 313 313 313 313 314 314 314 314 313 312 310 308 307 306 305 304 303 302 301 300 300
314 314 315 315 316 317 318 319 321 322 322 322 320 319 318 319 319 320 321 322 322 321 320 321 321 320 318 317 320 322 319 315 314 314 314 314 314 314 313 312 312 311 313 314 313 312 313 313 313 314 315 316 316 315 316 316 316 316 315 315 315 315 315 314 314 313 313 312 312 313 313 314 314 314 314 313 311 309 308 306 305 304 303 302 301 301 300 300
314 314 315 316 316 317 318 319 320 321 322 322 322 321 320 319 319 319 321 321 322 321 320 321 321 319 318 319 321 321 318 315 314 314 314 314 314 314 313 312 312 311 312 313 313 312 312 312 312 313 316 316 315 315 316 316 316 315 314 314 314 315 314 314 314 313 313 313 313 313 313 314 313 313 313 313 311 309 307 306 305 304 303 302 301 301 300 300
313 314 315 316 316 317 318 318 319 321 322 322 322 322 321 320 320 320 320 321 322 321 320 321 321 318 318 320 320 319 317 315 314 314 315 315 314 314 313 312 312 311 312 313 313 312 311 311 311 313 316 315 314 316 316 315 315 313 314 314 314 314 314 314 314 313 313 313 313 313 314 314 313 313 314 312 310 309 307 306 305 304 303 302 301 301 300 300
313 314 315 315 316 317 317 318 319 320 321 322 322 322 322 322 321 321 320 321 322 321 320 322 321 318 318 320 319 317 315 314 314 315 315 315 314 313 312 312 312 312 311 312 313 313 312 310 310 312 315 314 314 315 315 314 313 314 314 314 315 315 314 314 314 314 313 313 313 313 314 315 314 314 314 312 310 309 307 306 305 303 303 302 302 301 300 299
312 313 314 315 316 317 317 318 318 319 320 321 321 321 322 322 321 321 321 321 321 320 321 321 320 319 319 319 317 316 315 314 315 315 316 315 314 313 313 312 312 312 311 312 313 312 311 310 309 312 313 314 314 314 314 314 313 314 315 316 318 317 315 315 314 314 313 314 314 313 314 314 314 314 313 312 310 308 307 305 304 303 303 302 301 301 300 299
312 312 314 315 315 317 317 317 318 318 319 320 320 320 320 320 321 321 320 321 321 320 321 320 319 320 321 319 316 315 315 315 315 316 316 315 314 313 313 312 312 312 311 312 312 312 312 310 310 313 314 314 314 314 316 316 314 315 317 319 320 319 316 315 314 314 313 314 314 313 313 313 312 311 312 311 309 307 306 305 304 303 302 301 300 299 299 299
311 312 313 314 315 316 317 317 317 318 318 319 319 318 318 319 319 320 320 321 320 320 321 320 319 320 321 319 317 316 316 316 316 316 316 315 314 313 313 312 312 312 311 312 312 312 313 311 312 314 313 313 314 315 317 317 316 317 317 318 319 318 316 315 314 313 313 313 313 312 313 313 312 310 310 310 308 307 305 304 303 302 302 301 299 298 298 298
310 311 312 313 314 315 316 317 317 317 318 318 318 317 317 318 319 320 320 320 319 320 322 320 319 320 320 319 318 317 318 317 316 316 315 315 314 313 313 312 312 312 312 313 314 314 313 312 313 314 313 313 315 317 318 319 320 320 317 317 317 315 313 314 314 313 313 312 312 312 313 314 311 309 309 308 307 306 304 303 303 302 301 300 299 297 297 297
310 310 311 312 314 315 316 316 317 317 317 317 317 317 317 317 318 319 319 319 319 321 323 320 320 323 321 318 318 318 318 317 316 316 315 315 314 314 313 312 312 312 313 313 314 315 314 312 314 315 316 315 314 315 317 318 318 318 316 315 314 313 312 313 314 313 313 312 311 312 313 313 310 308 307 307 306 305 303 303 302 302 301 300 298 297 296 297
309 310 310 311 313 314 315 315 316 318 318 317 317 317 317 317 317 319 319 318 319 321 324 320 320 323 322 319 317 317 316 316 316 316 315 315 314 314 313 313 313 313 314 316 317 315 314 314 316 318 317 314 313 314 315 314 314 314 314 314 314 314 314 314 314 311 311 312 311 312 312 311 310 309 307 306 305 304 303 302 302 301 300 299 298 297 296 296
309 310 310 310 312 313 315 315 316 318 319 319 318 318 316 315 318 319 317 317 318 320 321 320 319 320 320 319 317 316 315 315 315 315 315 314 314 314 313 314 314 314 316 318 320 316 314 318 319 317 313 311 312 312 312 312 312 312 314 315 315 316 315 314 313 310 309 310 311 311 311 310 310 309 307 305 304 303 302 302 302 301 299 298 297 296 296 296
309 309 309 310 311 313 314 315 316 318 320 320 320 318 313 311 316 317 315 317 318 318 319 319 319 319 319 319 316 314 314 316 315 314 314 313 313 314 314 314 315 317 318 318 319 316 316 320 318 313 310 310 311 311 311 311 311 312 314 315 315 317 315 313 312 310 309 310 310 310 310 310 309 308 306 305 304 302 302 301 301 300 298 297 297 296 296 296
309 309 309 309 310 312 313 315 317 318 320 321 320 317 311 309 312 312 313 316 317 318 319 318 318 317 317 317 316 314 314 315 314 314 314 313 314 314 313 314 315 317 318 318 319 318 318 319 314 310 311 311 310 311 311 312 313 313 315 315 316 316 314 313 313 311 309 310 310 310 310 310 308 307 306 304 303 302 301 301 299 298 298 297 296 296 296 296
309 308 308 309 309 311 313 316 317 319 320 320 319 315 311 310 310 311 314 317 318 319 320 318 317 317 316 316 315 314 314 314 314 313 312 312 313 313 313 314 313 315 317 316 317 317 317 317 312 310 311 310 311 312 312 312 314 315 315 314 316 316 314 314 313 310 309 309 310 310 311 309 306 305 304 302 302 301 301 300 298 297 297 297 296 296 296 295
309 308 308 308 309 310 313 316 317 320 321 320 318 314 311 310 310 312 315 318 320 319 318 317 316 317 316 315 314 314 314 313 313 312 312 312 312 312 313 312 312 315 317 314 313 315 316 313 311 311 311 311 313 313 314 315 314 315 316 316 316 314 312 312 311 309 308 310 311 310 310 309 305 302 302 300 300 300 300 299 298 297 297 296 296 296 295 295
309 309 308 308 309 310 313 315 317 320 320 319 318 314 311 310 310 313 315 317 321 319 317 316 316 317 316 314 314 314 313 313 312 312 312 312 312 313 313 312 312 315 316 313 312 315 314 311 311 313 313 314 316 314 315 316 313 314 316 316 313 310 309 310 311 310 309 310 311 309 310 310 306 302 300 299 299 299 299 299 298 297 296 296 296 295 295 295
309 308 308 308 308 309 313 316 318 320 319 318 317 313 310 311 312 314 315 319 321 320 319 318 318 318 315 315 314 314 315 314 311 312 312 311 312 312 313 313 313 314 313 310 311 313 311 309 311 314 314 315 317 315 315 315 314 314 314 312 309 308 310 311 311 311 310 311 310 310 310 309 307 305 301 299 299 299 299 298 297 297 296 296 296 295 295 295
309 308 308 308 308 309 314 318 319 320 319 317 316 313 311 312 312 314 319 324 325 323 321 319 319 318 315 315 313 314 318 316 311 311 311 310 311 310 312 313 314 313 310 310 315 314 311 311 313 314 314 315 315 314 315 314 314 314 311 309 308 309 311 311 311 311 310 310 310 311 310 308 308 307 302 300 299 299 298 298 297 297 296 296 295 295 295 294
309 308 308 308 308 309 313 317 321 321 319 318 316 312 311 312 312 315 322 325 324 323 320 317 316 316 315 314 314 313 315 314 314 313 310 310 311 309 311 312 312 312 309 311 316 314 312 314 314 314 313 313 313 312 313 312 313 312 308 308 308 309 310 310 311 311 310 310 309 310 311 310 311 308 302 300 300 298 298 298 297 297 296 296 295 295 295 294
308 308 307 307 308 309 313 318 322 321 318 317 314 311 310 312 314 317 322 322 322 321 318 316 316 315 314 314 314 313 312 313 315 313 310 310 311 309 311 311 309 310 310 310 313 312 312 311 310 312 312 311 311 310 310 310 311 309 308 311 311 311 311 311 312 311 310 308 307 309 311 312 312 307 302 302 301 299 298 297 297 296 296 295 295 295 294 294
308 307 307 307 308 310 314 319 321 320 318 316 312 309 308 312 317 321 324 323 322 320 315 315 317 316 315 315 315 313 312 313 312 311 310 309 310 309 310 310 308 309 312 312 312 312 310 308 308 310 311 310 309 308 309 309 308 308 310 312 312 311 311 310 313 312 308 309 309 308 309 311 312 308 303 302 301 299 298 297 296 296 295 295 295 294 294 294
307 307 307 307 309 311 314 317 318 318 318 315 310 308 309 315 319 321 322 320 318 319 316 316 317 316 315 317 318 314 312 314 311 311 311 309 309 309 309 311 310 312 314 314 315 314 311 310 311 310 308 309 309 309 309 307 307 309 311 310 309 311 310 309 313 313 310 311 309 306 307 307 309 308 303 300 298 298 298 296 296 295 295 295 294 294 294 294
308 308 308 309 311 313 314 316 316 316 316 313 310 310 313 318 320 319 320 318 318 321 319 319 319 316 315 318 319 317 316 317 312 311 313 313 313 312 312 315 316 318 320 319 318 316 315 315 313 309 307 309 311 311 311 309 309 310 310 308 310 312 312 311 313 314 312 310 306 304 305 304 305 306 303 298 297 297 297 296 295 295 295 294 294 294 294 293
309 310 311 311 313 315 315 317 317 317 315 311 309 310 314 319 321 321 321 319 320 323 321 320 319 317 318 319 319 319 319 318 315 312 314 314 314 316 316 315 316 319 320 319 316 316 317 315 312 311 309 308 311 312 312 311 309 308 307 307 310 311 310 310 311 312 312 309 304 303 304 303 304 304 301 298 296 296 296 296 295 295 295 294 294 294 294 293
311 312 313 314 314 315 316 318 318 316 313 309 307 311 316 319 321 322 324 323 321 320 319 319 319 318 319 319 320 320 320 320 316 312 313 314 314 317 317 315 314 315 315 315 314 314 317 318 314 312 310 308 309 309 309 308 306 306 306 306 308 308 308 310 309 309 310 308 304 303 304 305 305 302 300 297 296 296 296 295 295 295 295 294 294 294 293 293
313 314 315 316 316 316 317 318 318 315 312 308 308 313 318 319 320 320 323 324 320 318 317 316 318 319 320 320 319 318 318 319 316 312 314 315 314 317 318 316 313 312 313 316 316 313 316 318 313 307 305 305 307 306 305 307 308 306 305 306 307 306 307 309 307 305 306 305 303 304 305 305 302 299 298 297 296 296 296 295 295 295 294 294 294 294 293 293
314 314 315 316 317 317 318 318 317 314 309 307 310 314 316 318 321 321 321 319 319 320 318 316 318 321 321 321 320 316 314 316 315 314 316 315 314 316 317 316 313 311 313 317 317 315 316 317 309 304 304 302 302 303 303 306 309 305 304 306 305 303 303 306 306 304 305 305 303 303 305 303 301 299 298 297 297 296 296 295 295 295 294 294 294 293 293 293
315 315 315 315 316 318 319 318 316 311 307 307 311 314 315 316 318 319 318 316 316 318 319 318 320 322 321 320 322 318 314 315 315 315 317 316 315 316 316 315 312 311 312 314 316 317 317 316 309 306 307 302 298 301 301 301 304 304 304 304 303 301 301 302 304 303 304 304 304 304 305 302 303 302 298 297 297 297 296 295 294 294 294 294 294 293 293 293
316 317 317 316 315 316 318 319 314 308 305 308 311 314 316 316 315 316 317 316 316 317 319 319 319 321 321 319 320 318 314 316 316 315 317 319 319 316 314 314 312 309 309 310 312 314 316 317 311 305 306 302 299 303 304 300 300 302 302 301 302 304 303 302 304 303 303 304 304 305 304 302 303 302 298 296 297 296 295 295 294 294 294 293 293 293 293 292
317 317 317 316 314 314 318 319 312 305 306 309 311 314 316 316 315 316 316 316 317 318 319 318 317 319 320 318 319 318 314 317 318 315 316 318 319 315 312 314 313 308 306 307 310 311 312 315 313 304 302 302 301 303 306 303 299 299 299 299 301 302 302 303 303 303 303 303 303 303 303 302 303 302 299 297 297 296 295 295 295 294 294 293 293 293 293 292
318 317 316 316 314 314 318 318 311 306 308 310 312 315 317 317 316 315 316 316 316 317 318 318 318 318 318 318 320 318 316 318 318 317 317 317 318 316 311 312 313 307 304 305 308 310 309 311 311 304 300 302 303 304 305 305 301 299 299 299 299 299 301 302 301 300 301 301 301 302 302 302 301 299 298 296 296 296 295 295 295 294 294 293 293 293 292 292
317 315 315 316 315 316 318 315 310 308 309 310 312 314 316 317 316 315 314 315 315 316 316 317 317 317 317 317 318 318 318 319 317 317 318 316 317 318 313 310 310 307 304 305 308 309 309 309 309 305 302 303 304 302 302 303 303 301 300 300 300 299 301 301 300 301 301 300 300 301 301 302 300 297 297 297 296 296 295 295 294 294 293 293 293 293 292 292
316 315 315 315 315 316 315 312 311 310 309 310 312 314 314 315 315 315 313 313 315 315 314 314 315 316 316 316 316 318 320 319 318 318 318 317 317 317 313 309 306 306 305 307 307 306 306 308 308 307 305 304 302 300 298 299 300 301 301 301 300 299 300 301 300 302 301 299 299 299 299 300 299 298 298 296 296 296 295 295 294 293 293 293 293 292 292 291
314 314 314 315 315 313 312 312 313 311 311 312 312 314 315 314 314 314 313 312 313 313 313 314 314 313 314 315 315 316 317 317 318 317 316 318 316 309 307 307 305 305 306 307 306 304 304 308 308 307 306 303 299 296 297 297 298 299 299 300 299 299 300 300 299 300 301 299 298 298 298 298 298 299 298 296 296 296 296 295 294 293 293 293 293 292 292 291
313 313 314 314 313 310 311 314 313 312 312 313 314 314 314 314 314 313 313 312 312 312 313 313 313 312 313 315 314 314 315 316 317 318 317 319 313 303 302 306 305 305 305 306 306 305 306 308 307 307 308 307 302 299 298 298 297 297 298 299 299 299 300 299 298 299 299 298 298 297 298 298 297 298 298 296 296 296 295 295 294 293 293 293 292 292 291 291
313 313 313 312 310 309 312 314 313 314 314 314 314 314 313 314 313 313 313 313 311 311 313 313 313 312 312 314 314 314 315 314 316 318 317 316 309 300 299 302 302 302 302 302 303 305 308 308 306 309 311 313 313 309 304 300 297 297 298 299 299 299 299 298 298 298 298 297 297 297 298 298 297 297 298 297 296 297 295 294 293 293 293 292 292 292 291 291
313 314 312 310 308 308 311 312 312 314 315 315 315 314 313 314 313 312 312 313 312 311 312 313 313 312 313 314 314 314 314 314 315 316 315 313 306 300 298 298 299 299 299 300 301 304 306 304 304 308 311 313 314 310 304 301 298 298 298 298 298 299 299 298 298 298 297 297 298 297 297 298 298 298 297 297 297 297 295 293 293 293 293 292 292 291 291 290
313 314 312 309 309 309 309 310 311 312 314 315 315 315 315 315 314 313 312 312 312 312 311 312 312 313 314 314 314 313 313 314 315 315 315 313 304 298 297 296 297 298 297 298 300 303 304 303 303 305 306 307 308 306 303 301 299 298 298 297 297 298 299 299 298 297 297 297 297 298 298 298 298 297 297 296 296 296 294 292 292 293 292 292 292 291 290 290
313 313 312 311 311 311 309 309 311 311 312 314 314 314 316 316 316 316 313 312 312 312 312 313 313 313 313 313 314 314 313 314 314 313 314 313 306 300 298 297 297 297 297 298 299 300 302 303 304 304 303 303 304 303 302 301 299 298 298 297 297 297 298 299 298 297 297 297 297 298 298 298 297 297 296 296 295 294 293 292 293 292 292 292 291 290 290 289
313 313 313 313 313 312 311 310 310 311 312 313 314 314 315 316 317 317 315 314 313 312 312 314 314 313 313 313 313 313 313 313 314 314 312 312 308 303 302 302 299 297 297 298 298 298 300 302 302 302 302 302 301 302 302 300 299 299 298 298 297 297 297 297 297 297 297 297 297 297 297 297 297 296 296 295 294 293 292 293 293 292 292 291 291 290 289 289
312 313 312 313 314 314 313 312 310 311 312 313 314 314 314 315 316 315 316 315 314 313 312 313 314 314 314 313 312 313 313 313 314 315 313 311 309 305 305 306 302 297 297 298 298 298 300 302 301 300 301 301 300 300 300 300 299 298 298 298 298 297 297 297 297 297 297 297 296 296 296 296 296 296 296 295 294 293 293 293 292 292 292 291 290 290 289 289
311 312 311 312 314 314 315 314 312 312 312 313 314 314 314 315 315 315 316 315 315 314 313 312 313 314 314 314 313 312 312 312 314 313 312 312 310 307 306 305 302 299 298 297 298 299 299 300 300 300 301 302 300 299 299 298 298 298 298 298 297 297 297 297 297 297 297 297 296 296 296 296 296 296 296 294 293 292 293 292 292 292 291 290 290 289 289 288
310 311 311 312 313 314 314 315 314 314 314 313 313 314 314 315 315 315 316 316 315 315 314 313 313 313 313 313 313 312 311 311 311 309 308 308 308 306 306 304 302 301 299 297 298 298 298 299 300 300 302 301 299 298 297 297 298 299 299 298 297 297 298 297 297 297 297 297 296 296 296 296 296 296 295 294 293 293 292 292 291 291 291 290 289 289 288 287
Wind_Speed
11 12 12 14 15 16 17 19 19 19 19 19 20 21 22 24 25 26 27 26 27 28 32 31 24 19 15 7 4 3 4 8 10 9 9 12 13 11 11 11 11 12 12 11 11 12 10 8 5 5 7 6 1 1 1 2 2 1 1 2 2 2 3 4 4 4 2 2 6 8 12 7 5 8 7 7 3 5 12 16 15 17 21 21 17 15 16 17
10 11 12 13 14 15 16 17 19 18 18 18 19 20 21 23 25 25 26 26 26 28 31 30 23 18 15 8 3 1 4 8 8 10 12 13 12 11 11 10 11 12 13 13 12 11 10 7 6 7 7 6 4 1 2 1 2 2 1 1 1 2 2 5 5 6 6 5 8 10 13 8 7 8 7 5 3 8 11 11 15 18 20 17 15 16 16 18
10 11 12 13 14 15 15 16 17 18 17 17 18 19 21 23 24 25 25 25 26 27 30 30 23 18 14 9 3 0 2 5 6 11 13 11 10 10 10 10 11 13 14 14 13 12 12 10 8 8 10 8 4 2 2 3 3 1 0 1 0 2 2 5 7 9 10 10 9 9 11 7 8 9 6 5 5 11 9 8 13 17 21 19 18 19 19 21
11 11 12 13 14 15 15 15 16 17 17 17 17 18 20 22 23 24 24 24 25 26 29 30 23 18 14 10 4 1 1 1 4 9 10 9 8 8 9 10 11 13 14 14 13 14 14 12 10 8 9 8 4 4 2 3 1 1 1 1 2 1 2 2 5 8 11 11 9 8 8 5 8 6 4 6 3 7 7 11 14 18 20 19 19 19 20 23
11 11 12 13 14 15 15 15 15 16 16 16 17 18 19 21 22 23 23 23 24 24 28 29 24 18 13 10 5 1 1 1 3 6 7 6 6 7 8 10 13 13 14 13 12 13 12 10 10 8 7 6 2 3 2 3 2 2 2 4 5 2 1 2 3 7 9 9 8 8 5 6 8 3 4 8 5 3 7 13 18 20 19 18 19 19 21 24
11 12 12 13 14 15 15 15 15 15 16 16 16 17 18 20 21 22 22 22 23 23 26 28 24 17 12 9 7 4 2 1 2 3 4 4 4 6 9 11 13 13 14 12 11 10 9 9 9 8 5 5 2 1 3 3 3 2 2 5 8 4 1 2 4 7 7 7 6 6 6 7 7 2 9 12 9 7 12 18 20 21 19 18 18 20 23 25
12 12 13 13 14 14 15 15 15 15 15 16 16 17 18 19 21 21 22 22 22 22 24 27 24 16 10 7 7 5 3 1 1 2 2 2 3 6 9 10 13 14 13 11 10 9 8 9 10 11 7 4 2 3 2 1 3 2 1 4 6 2 1 1 5 7 6 4 5 6 7 8 6 2 10 11 10 12 19 20 20 20 18 19 19 21 23 23
12 13 13 13 14 15 15 15 16 15 15 15 16 17 18 19 20 21 22 21 22 23 23 26 23 15 9 4 4 1 2 1 1 1 2 2 4 6 8 11 14 14 12 10 10 10 9 9 9 9 6 2 3 3 5 4 5 4 1 3 2 2 3 2 5 5 4 2 5 8 7 5 3 7 11 9 10 18 22 20 20 19 19 20 21 21 21 22
13 13 14 14 15 15 15 15 16 16 15 15 16 18 19 19 20 20 21 20 21 22 22 26 23 14 8 3 4 3 2 2 1 1 2 3 5 7 9 12 14 13 11 8 8 9 8 6 6 5 4 4 4 5 5 4 3 3 3 2 3 5 6 5 5 3 1 3 10 10 6 3 7 12 9 9 14 21 21 20 19 18 20 20 20 20 20 22
13 14 14 14 15 15 16 16 16 17 17 16 16 18 19 19 20 20 21 20 20 22 22 25 23 13 7 2 3 3 4 4 2 2 2 4 6 8 10 11 12 12 10 7 8 9 8 5 5 5 4 4 4 6 4 2 1 2 7 6 8 8 5 7 5 2 3 5 12 8 6 4 9 11 4 8 15 20 20 20 18 19 20 19 19 19 19 21
13 14 14 14 15 16 16 16 17 17 17 18 17 18 19 20 20 20 21 19 20 21 20 24 21 10 5 2 3 4 5 5 3 2 3 5 7 8 10 10 11 11 9 7 7 8 7 6 5 4 2 3 5 6 5 3 4 5 9 8 9 8 5 6 5 4 4 3 12 10 9 6 7 8 5 11 16 20 21 20 18 19 19 18 18 18 19 20
13 14 14 15 15 16 16 17 17 18 18 19 18 18 19 20 20 20 20 19 20 20 20 23 18 6 2 1 5 5 6 6 4 3 4 6 8 9 9 10 10 11 9 7 7 7 8 7 5 2 1 4 7 4 3 4 7 7 7 4 3 6 5 6 7 7 7 0 11 13 6 3 5 7 10 17 19 20 20 19 18 17 17 17 17 17 18 19
13 14 15 15 16 16 17 17 17 18 19 19 19 19 20 20 20 20 19 19 20 18 20 21 13 3 0 2 5 6 7 7 5 5 6 7 8 8 9 10 10 10 10 7 6 7 8 8 6 3 3 4 4 3 4 4 6 6 4 1 3 4 4 7 8 10 8 0 8 10 3 2 6 9 13 20 22 21 19 17 16 16 16 16 15 16 17 19
14 14 15 16 16 17 17 17 18 18 19 20 20 20 20 20 20 20 19 19 19 17 20 18 8 3 1 4 5 6 8 8 7 7 8 9 8 10 11 11 11 10 10 8 6 7 8 9 8 4 5 6 4 5 6 2 2 3 1 1 3 1 3 5 4 8 7 1 3 5 2 2 2 9 13 20 22 20 19 16 15 15 15 15 15 15 16 17
14 14 15 15 16 17 17 17 18 18 19 20 21 21 21 21 20 19 18 17 16 16 19 13 3 3 3 5 4 6 9 9 9 9 9 9 9 11 12 13 12 10 11 9 7 6 8 10 7 4 5 4 3 5 5 3 3 2 1 2 2 3 1 3 2 3 2 1 1 1 2 3 4 8 15 20 19 19 19 16 14 14 14 14 14 16 16 15
14 14 15 15 16 17 17 18 18 19 20 21 22 22 21 22 20 18 16 15 14 16 17 6 0 7 6 4 4 5 8 10 10 9 9 9 9 12 13 13 12 11 13 10 6 7 9 9 5 5 5 3 2 3 4 1 1 1 2 2 3 4 2 1 1 2 3 1 1 1 2 3 2 9 14 18 19 19 18 15 14 13 13 14 15 16 16 14
14 15 15 15 15 16 17 18 19 20 20 22 23 22 22 20 17 16 14 11 12 17 14 3 3 11 6 5 4 4 8 10 9 9 8 9 10 12 14 15 12 12 14 10 7 8 7 5 3 4 3 3 1 2 4 4 1 1 3 3 4 5 5 2 2 2 2 1 3 2 4 5 1 10 13 16 19 19 17 15 14 13 13 13 14 15 16 14
15 15 15 15 15 16 17 17 19 20 21 22 22 23 21 16 16 14 7 6 13 15 7 2 7 8 3 3 3 5 8 9 8 8 8 9 11 12 15 15 12 13 12 7 5 6 4 3 3 2 1 1 3 5 3 2 0 3 3 2 4 4 6 6 2 1 1 0 3 4 5 5 1 8 12 13 15 17 16 15 14 13 13 12 13 14 14 13
15 15 15 15 15 15 16 17 19 20 22 22 21 22 18 16 17 6 2 9 15 8 2 6 9 5 5 5 6 9 9 8 7 8 9 10 11 14 15 13 11 11 9 3 4 5 3 4 3 1 2 2 4 4 1 1 1 3 4 3 5 4 6 7 1 1 2 2 3 4 5 7 4 5 10 12 14 16 15 14 13 12 12 12 12 12 12 10
15 15 15 15 15 15 15 17 18 19 22 22 23 22 17 18 14 2 9 19 12 5 9 14 12 10 10 9 7 8 8 6 5 7 9 9 11 13 11 10 9 7 3 2 5 4 3 5 2 2 3 3 4 2 0 2 2 3 4 4 6 6 6 4 0 3 4 3 3 5 7 10 6 4 10 14 15 14 13 13 12 12 11 10 9 9 10 8
15 15 15 15 15 14 15 16 17 18 19 20 23 20 14 14 7 4 18 19 10 13 17 16 12 11 12 9 6 4 3 3 3 5 7 9 11 9 7 9 7 3 4 8 7 2 3 4 1 3 2 2 2 0 1 3 4 5 5 5 6 5 5 4 0 3 5 3 4 7 9 10 6 6 11 14 12 10 12 13 12 12 11 8 7 6 7 7
16 15 14 15 15 14 14 15 15 16 16 16 18 16 13 13 8 8 13 11 16 20 15 11 8 10 11 10 7 2 1 2 2 3 6 8 8 5 7 9 5 3 8 9 5 3 4 2 2 2 1 1 2 3 3 5 5 5 5 4 6 3 2 4 1 3 4 2 4 7 7 7 2 7 9 10 9 9 13 14 12 11 10 7 6 5 5 7
16 15 14 14 14 14 13 13 15 14 14 14 15 14 13 13 12 13 11 9 15 14 7 6 4 5 6 6 6 3 1 1 1 2 5 6 4 3 7 6 3 6 6 3 4 4 5 1 2 1 1 1 3 4 5 5 5 5 4 5 5 0 1 3 0 4 6 5 5 6 6 3 3 6 5 8 12 12 13 13 12 10 9 6 5 5 6 8
16 15 15 14 14 14 12 13 13 12 13 13 13 12 12 13 13 15 12 7 8 6 4 4 5 5 4 4 4 2 1 2 1 3 5 5 4 3 4 2 2 5 2 4 4 5 7 2 2 1 1 1 4 4 4 3 3 4 3 3 3 1 1 4 3 6 7 6 4 5 6 4 6 7 4 7 11 12 13 14 12 10 8 6 5 5 7 9
16 16 15 14 14 13 12 12 11 11 11 10 11 11 11 12 13 15 11 5 5 4 2 3 5 6 6 4 3 2 1 2 3 5 5 5 4 2 3 2 2 3 3 4 4 6 5 1 3 2 1 2 3 5 2 1 3 4 1 1 2 1 2 4 5 6 5 4 3 2 4 4 7 10 7 7 8 9 12 13 11 9 7 6 5 4 6 9
17 16 15 15 14 12 11 11 9 10 10 9 10 10 11 11 13 15 8 1 3 2 3 3 4 4 5 4 3 3 1 1 3 6 5 4 3 3 3 1 2 1 3 3 2 3 2 3 3 1 2 3 4 4 0 3 2 3 2 1 2 1 5 5 6 3 2 4 4 3 1 4 4 7 9 9 8 8 9 8 9 9 6 6 4 3 6 10
17 17 16 15 14 12 10 9 9 10 8 8 9 8 10 10 12 13 6 1 3 2 3 3 4 4 4 3 3 3 1 0 3 5 2 1 2 3 2 2 2 2 2 2 3 1 2 2 1 2 2 2 4 3 1 1 1 2 3 2 1 4 7 6 6 5 4 5 5 5 5 5 6 5 11 12 9 8 8 6 8 8 6 4 3 5 8 13
17 17 16 15 14 12 10 9 9 9 7 7 8 7 8 9 12 9 3 2 1 3 3 3 4 3 4 3 3 3 1 1 2 2 2 1 2 1 2 3 3 3 1 1 3 1 2 2 2 1 0 2 2 2 2 1 1 2 1 2 3 6 8 7 6 6 5 5 5 6 5 4 6 3 9 12 10 9 9 7 7 7 5 4 5 6 10 14
17 17 16 14 14 12 11 10 9 8 7 6 7 6 6 8 8 4 2 1 0 3 1 3 3 3 4 1 3 5 3 2 2 1 1 1 2 1 3 4 3 5 4 5 6 4 1 3 2 3 2 2 2 3 2 1 2 2 4 5 5 7 8 6 6 5 5 6 6 6 6 4 4 2 7 8 8 8 8 7 6 6 5 5 5 7 13 17
17 17 16 14 14 13 11 10 9 7 6 6 5 4 5 7 4 2 1 2 0 2 2 3 2 3 4 3 3 6 4 4 3 1 1 1 3 3 5 6 4 4 5 5 7 5 3 4 2 2 2 1 2 3 3 3 3 4 5 5 5 6 7 5 6 3 2 5 5 5 6 6 4 3 6 5 4 6 7 6 5 5 4 4 5 10 16 19
17 16 16 15 14 13 12 10 9 7 5 5 4 3 4 4 1 1 4 1 1 1 3 2 1 3 4 1 1 4 3 4 5 3 2 2 3 4 3 4 2 1 3 4 5 3 3 3 2 1 1 2 2 1 4 5 2 2 2 4 5 5 4 2 1 1 1 5 2 3 4 1 4 4 4 3 4 7 7 6 5 4 3 6 9 14 17 18
17 17 16 15 14 13 12 11 9 7 6 4 4 2 2 1 2 4 3 2 2 2 2 1 1 2 2 1 0 3 1 2 6 5 2 2 2 4 3 3 1 1 3 2 2 3 2 4 2 3 1 3 2 0 1 2 1 2 3 3 3 4 3 2 1 0 3 4 2 5 8 2 6 4 4 8 6 7 8 8 6 3 5 9 11 14 15 17
18 17 16 15 15 14 13 13 11 9 7 5 4 2 1 1 4 4 4 1 1 1 2 2 1 1 3 2 2 2 1 2 6 4 1 3 1 4 3 3 4 2 4 1 3 4 2 1 2 3 1 4 4 2 1 1 1 3 2 1 1 2 3 4 2 3 3 3 3 3 7 4 5 4 6 9 8 9 12 11 7 6 7 9 11 12 14 15
19 18 17 16 15 15 14 14 13 10 8 7 5 2 2 4 4 2 5 5 1 1 3 3 1 1 2 2 3 3 1 4 5 3 1 3 2 3 3 3 4 4 2 1 2 3 3 4 2 3 2 5 4 2 3 2 1 2 3 4 2 1 3 4 1 2 4 5 4 1 4 3 3 2 4 10 12 13 13 9 7 7 8 9 11 11 12 15
18 18 18 16 15 15 15 15 14 11 10 9 5 3 5 6 3 3 5 3 1 2 2 2 2 2 3 5 3 3 3 3 2 3 2 5 4 4 4 4 6 5 3 1 2 2 4 5 2 1 1 4 2 2 4 2 0 1 2 3 1 2 3 3 1 2 2 6 5 2 2 4 0 2 4 10 10 12 10 7 7 8 9 11 10 10 13 15
18 18 18 17 16 15 15 16 14 12 14 11 4 5 7 6 4 3 3 1 1 3 3 1 2 2 4 4 4 3 2 1 1 2 2 5 5 6 5 4 7 8 6 4 1 1 3 4 1 2 1 2 2 1 1 1 1 0 2 2 4 2 2 0 3 1 2 5 5 3 4 3 2 2 3 7 6 7 8 6 7 8 9 9 9 10 14 17
16 17 17 18 18 16 15 16 14 14 16 10 5 7 6 6 8 7 2 3 1 2 3 1 3 4 4 2 3 5 2 0 2 2 2 3 4 6 6 3 6 10 8 4 1 2 1 4 3 2 1 1 2 2 1 1 2 2 2 3 2 1 3 3 1 3 1 6 4 4 6 5 1 3 4 6 6 5 5 5 4 5 7 8 8 11 15 19
15 16 18 20 20 18 15 13 14 16 14 7 8 10 6 7 12 10 5 6 2 3 3 3 3 4 4 3 2 5 5 2 3 3 2 2 3 6 8 3 4 6 5 4 1 1 1 2 3 0 1 1 2 1 1 1 2 3 2 1 2 1 1 3 1 1 2 6 6 4 8 7 5 4 6 8 7 5 3 2 1 4 6 7 10 13 17 20
16 15 15 18 20 19 16 14 14 16 11 5 8 9 6 8 15 15 10 7 3 3 3 5 5 4 4 5 1 3 5 4 5 4 2 3 3 6 9 6 3 3 2 5 3 1 2 1 3 2 2 1 1 1 2 1 2 3 2 1 2 1 2 2 2 2 2 5 6 9 10 5 4 5 9 9 6 5 2 2 2 4 6 8 11 14 19 21
17 11 10 14 16 15 16 15 15 13 7 7 9 8 7 7 12 18 18 11 5 5 4 4 5 6 5 6 4 3 5 6 5 4 3 4 3 4 9 8 5 4 3 4 1 1 2 3 3 2 2 1 2 3 5 5 4 3 2 2 2 1 1 1 1 2 2 4 3 7 11 4 2 1 7 9 6 6 4 1 1 3 5 7 11 15 20 22
17 8 8 13 13 13 15 14 12 9 5 6 8 9 9 7 7 13 18 17 12 9 8 6 5 6 5 6 5 4 4 4 5 5 4 5 4 4 8 9 10 9 5 4 0 2 2 3 4 2 2 4 3 2 1 3 4 5 5 5 6 5 3 2 4 2 2 4 4 5 11 8 3 2 5 7 6 5 4 1 2 2 4 7 12 16 20 23
16 7 7 13 13 14 17 11 7 8 6 8 11 11 10 7 6 9 13 14 12 9 7 6 6 7 7 6 5 3 3 4 5 6 4 6 8 5 4 11 16 15 9 2 1 2 1 1 2 5 4 3 1 1 2 2 2 2 4 4 5 6 5 5 6 2 2 3 3 3 9 8 2 5 5 6 6 5 2 1 1 2 5 7 13 17 21 24
17 10 9 13 16 18 16 6 6 8 7 10 14 15 13 8 5 8 10 10 8 5 4 5 6 9 9 6 6 5 4 5 8 8 5 5 7 2 2 11 18 13 7 1 1 2 2 2 1 5 4 0 1 1 1 2 2 1 4 5 5 6 7 5 4 1 2 4 4 2 8 7 1 3 5 7 9 9 4 1 3 4 7 9 14 19 23 26
16 14 13 14 20 23 15 5 7 9 8 9 10 13 16 13 8 9 9 9 9 5 4 5 7 10 8 5 6 7 6 5 8 7 7 6 3 2 4 11 16 10 4 2 4 7 5 2 2 1 5 4 1 1 2 1 2 3 5 5 6 6 4 2 1 3 2 9 8 5 10 7 1 3 6 8 9 6 3 4 5 6 8 11 16 20 23 26
12 10 13 17 24 25 16 9 6 6 9 10 11 14 15 11 11 16 14 11 13 11 6 6 7 9 7 5 6 9 9 9 7 3 4 4 1 2 2 5 9 7 3 2 7 11 6 2 5 4 6 9 7 4 3 2 3 3 4 7 9 9 8 5 2 3 7 10 9 9 13 9 4 6 6 5 5 7 8 4 6 6 8 12 17 20 23 27
11 7 6 11 21 25 20 15 9 6 6 9 10 12 14 11 11 18 17 13 16 18 13 9 7 7 6 6 7 11 11 10 8 5 2 3 1 1 1 2 3 4 4 4 9 10 2 1 8 10 11 12 10 6 1 3 4 4 6 10 11 11 13 9 4 7 8 4 8 14 14 14 13 10 7 7 6 7 5 4 7 7 9 13 17 20 25 28
12 7 7 8 11 16 17 16 14 10 9 10 7 6 12 13 9 11 17 16 16 18 16 11 9 8 6 8 8 11 11 9 9 11 9 5 2 1 1 2 2 4 5 6 8 7 2 4 11 14 18 17 12 7 2 5 6 7 7 10 12 12 13 12 12 13 6 2 13 18 12 13 17 11 7 7 5 4 1 4 5 7 9 13 17 22 26 29
15 10 16 18 10 7 9 14 17 13 13 14 9 8 13 13 8 8 14 13 13 16 12 8 13 15 13 12 8 8 9 7 8 12 11 5 3 2 1 1 3 5 4 4 4 4 2 6 8 11 17 18 13 10 7 5 7 9 9 9 12 14 15 17 19 17 9 9 18 18 11 15 15 8 6 6 3 0 2 2 4 7 10 14 18 23 27 28
21 10 14 21 16 11 14 20 21 17 17 16 12 13 14 13 14 12 7 5 7 12 12 9 13 16 17 16 11 10 12 8 8 11 8 5 5 5 3 2 4 6 5 3 3 3 3 5 5 8 14 15 12 11 10 9 10 12 11 10 12 15 17 18 20 18 16 18 22 20 19 21 17 9 9 9 4 2 2 3 6 8 11 15 19 24 26 27
29 20 16 17 18 18 17 19 18 14 15 16 14 14 13 16 21 16 9 10 8 5 11 18 20 14 15 17 16 18 19 12 11 13 8 8 5 4 4 3 5 6 6 4 2 3 4 3 2 4 9 12 9 9 9 9 11 15 15 12 14 16 17 18 19 17 16 20 24 22 21 22 16 8 8 9 3 3 1 5 7 9 11 14 20 25 25 24
39 32 23 13 10 15 16 14 12 9 10 14 14 13 14 20 25 17 11 19 21 11 12 21 22 13 10 14 19 22 22 17 16 17 12 12 11 10 9 7 10 9 6 6 4 4 5 3 2 3 6 7 3 6 7 7 9 16 21 19 18 18 18 17 17 15 15 19 22 19 15 16 11 3 4 7 6 5 1 3 7 11 13 15 20 23 23 21
43 35 30 20 10 12 15 11 9 10 12 13 14 16 19 22 22 16 11 17 28 31 28 22 14 9 10 16 21 24 24 21 16 13 12 13 10 11 12 13 17 13 8 8 6 4 6 4 2 3 4 2 2 4 2 4 6 14 16 15 19 21 20 18 16 17 19 19 16 13 13 12 5 1 5 5 5 4 1 2 6 11 15 18 19 19 18 20
Wind_Direction
6 6 6 7 6 6 7 9 8 7 7 5 3 1 359 359 359 358 358 0 1 2 6 11 13 9 10 11 19 32 14 32 29 23 39 41 37 29 26 28 33 34 28 25 24 28 19 359 351 321 316 298 232 147 254 348 332 238 263 239 283 330 59 337 349 29 342 12 5 22 40 35 47 46 9 335 224 148 72 57 43 49 61 71 65 46 39 27
0 2 2 4 3 2 3 5 6 6 6 4 3 1 358 358 358 357 357 359 360 0 4 10 15 12 10 8 16 357 8 35 26 25 40 37 34 33 34 39 38 29 19 16 15 22 18 5 341 331 325 285 236 178 195 247 299 238 281 260 315 35 45 348 353 348 359 10 356 12 10 10 50 39 6 344 120 85 55 43 35 50 64 64 53 45 40 34
357 359 1 2 1 360 359 0 3 4 3 2 1 360 358 357 357 355 355 359 359 359 3 9 14 12 10 7 11 227 17 38 13 17 33 37 37 41 44 43 32 20 14 10 9 17 13 5 354 340 323 296 216 191 201 203 264 221 350 270 124 74 79 16 359 335 346 356 2 7 342 2 48 25 8 341 63 69 54 36 31 56 69 62 55 52 47 46
355 357 360 0 360 358 357 358 359 1 360 358 358 358 358 356 356 354 354 358 359 358 1 7 12 10 11 7 11 171 353 37 355 10 29 39 45 50 48 39 26 18 13 5 8 17 8 355 338 323 309 297 193 186 190 183 260 352 265 149 133 252 134 50 349 323 331 351 357 333 321 16 21 2 3 338 40 77 52 48 55 77 77 66 59 53 49 48
352 354 356 358 357 356 356 356 357 357 356 354 353 355 356 355 355 354 354 356 357 357 358 5 9 7 11 13 27 108 284 277 335 2 29 41 51 49 40 31 22 16 11 5 12 9 356 346 323 304 285 283 208 196 136 141 304 308 249 106 91 332 126 128 321 308 315 342 341 324 342 5 346 354 68 34 64 72 57 72 81 88 81 72 65 55 52 48
346 349 352 354 353 353 354 355 355 353 352 350 348 350 353 353 353 353 353 353 354 354 355 3 7 4 10 25 45 55 6 311 318 350 33 39 47 41 33 26 19 15 13 10 12 5 351 355 340 334 316 290 335 22 108 117 304 290 240 103 87 12 50 132 297 290 300 333 329 330 353 334 322 58 90 73 58 52 88 95 92 89 80 75 67 58 55 51
342 344 347 349 349 349 351 354 353 349 348 348 345 344 347 350 351 352 352 350 350 350 351 360 5 1 1 28 46 60 69 37 313 4 41 36 34 34 27 21 18 15 16 16 13 14 12 10 356 348 327 279 4 19 47 3 271 252 249 124 106 360 356 218 272 275 293 318 320 327 326 300 272 150 102 83 55 78 101 102 96 90 80 73 66 61 57 53
339 341 344 346 346 346 348 351 351 348 343 343 343 340 342 346 347 349 350 347 346 345 347 355 2 359 350 1 7 39 122 359 328 18 10 19 21 24 18 16 18 14 16 17 13 24 25 14 4 349 327 334 29 336 338 336 235 218 314 117 144 238 196 242 253 267 297 299 337 334 313 296 220 143 119 82 68 100 107 101 96 89 81 74 68 63 57 52
337 339 342 344 344 344 345 348 349 348 344 339 339 337 338 341 342 345 347 345 343 342 342 349 357 357 348 331 307 286 245 300 298 309 344 19 14 10 10 14 15 11 15 11 8 26 28 7 1 353 321 330 349 322 341 357 217 224 335 355 259 232 181 208 234 246 310 22 356 341 321 340 138 140 120 82 92 112 109 99 95 88 84 77 71 65 56 50
335 338 340 342 342 342 342 345 345 347 346 341 339 336 334 336 338 340 342 343 341 339 339 346 351 352 358 345 286 283 260 270 256 278 344 11 6 7 7 9 9 7 12 6 8 23 24 3 338 340 312 287 297 292 292 314 267 276 309 305 271 255 183 192 213 167 122 35 357 328 309 317 161 157 117 93 109 116 107 99 97 90 88 81 74 67 56 51
332 335 338 340 340 340 340 340 342 343 344 342 341 338 334 333 335 335 337 340 338 336 336 343 345 344 15 6 280 276 256 250 233 270 338 356 358 3 1 1 2 5 8 358 3 12 12 4 341 342 327 302 303 268 217 227 278 288 302 302 255 233 166 182 190 147 170 34 349 310 294 295 175 161 126 118 120 118 110 105 102 94 91 85 76 68 57 51
327 331 334 338 339 339 338 337 338 340 340 341 340 339 335 332 333 332 333 335 335 333 333 341 342 331 31 327 262 264 252 238 235 272 317 345 353 355 353 354 354 360 1 343 345 358 359 358 349 341 292 306 313 285 193 225 277 287 295 310 190 172 149 186 176 167 202 55 350 323 299 251 168 150 133 127 125 119 113 109 105 96 92 84 74 67 56 47
323 327 330 334 336 337 336 336 336 336 338 337 338 339 336 333 333 331 331 331 331 329 332 340 342 324 303 272 259 255 249 236 243 278 306 329 346 347 346 348 348 350 348 333 326 341 351 353 341 289 258 276 291 298 291 280 282 273 264 249 150 147 174 196 176 177 204 263 353 342 338 215 171 158 139 129 130 123 115 112 106 97 90 81 70 61 51 41
317 321 327 330 333 335 335 335 335 335 335 334 335 337 337 335 333 331 331 329 326 327 333 339 356 44 270 260 265 251 242 238 255 285 306 323 337 337 341 345 343 340 338 327 315 331 341 343 338 286 250 249 259 298 293 261 254 247 157 232 212 175 178 181 160 172 189 177 6 351 301 270 112 136 129 127 134 126 117 113 106 98 90 80 69 57 47 38
313 318 323 326 330 332 333 334 334 333 333 333 333 335 337 337 335 332 329 325 321 327 334 337 21 14 302 253 255 248 244 249 269 289 303 317 328 334 340 340 333 330 331 322 305 323 333 334 332 282 266 258 252 292 286 187 195 225 55 315 307 11 172 157 79 149 162 257 157 19 268 304 44 109 122 130 135 125 117 114 107 100 93 81 68 55 44 37
309 314 318 322 326 329 332 333 333 333 332 333 332 333 338 337 334 331 325 318 316 328 333 329 86 331 311 254 249 247 251 258 274 288 296 309 323 331 334 332 329 327 327 326 317 312 317 327 317 270 271 262 220 262 299 313 204 173 56 346 344 342 297 148 119 136 76 341 265 59 221 274 64 107 116 128 132 125 119 115 109 100 93 80 66 53 43 35
305 310 314 319 323 326 330 332 333 333 332 334 333 333 337 336 333 327 316 305 314 331 330 267 305 325 295 242 255 248 257 264 277 284 288 304 317 325 331 329 325 325 320 318 331 322 307 310 300 281 257 226 296 23 4 360 348 335 42 11 301 305 315 299 210 182 117 115 310 283 214 259 144 113 113 127 131 127 122 117 113 103 94 79 65 51 39 33
300 306 310 315 320 324 328 331 334 333 333 335 334 336 339 339 338 327 299 304 326 333 330 274 332 328 259 235 254 249 267 278 283 281 286 301 314 322 328 325 314 320 316 292 317 327 303 275 242 277 285 205 27 45 50 30 328 292 337 342 293 304 301 279 241 230 252 106 309 268 221 264 260 120 123 134 134 128 122 119 115 103 93 77 65 50 36 33
295 301 307 311 316 321 326 331 334 335 335 336 335 339 343 343 346 348 225 330 335 332 299 318 325 292 264 292 270 259 276 290 284 278 289 300 316 321 324 327 318 318 312 277 322 325 326 320 269 285 1 45 42 58 67 336 296 283 291 274 272 276 269 273 257 130 353 356 284 273 254 268 266 148 138 140 136 127 122 120 115 102 88 71 62 46 34 30
290 296 302 307 312 318 325 330 335 337 338 340 342 347 355 353 357 18 317 328 330 299 286 298 294 262 263 281 276 270 276 288 283 283 297 307 321 326 336 344 321 296 288 311 319 318 352 340 322 33 30 39 34 49 356 295 270 265 262 241 247 252 256 282 16 118 67 45 279 298 278 269 264 182 148 141 136 129 127 123 117 107 91 76 67 46 32 23
286 291 297 303 308 315 322 329 334 339 342 345 350 1 14 6 4 314 325 330 319 302 296 292 281 254 249 249 268 301 287 289 284 280 302 322 329 338 3 353 322 268 324 321 297 289 357 323 3 59 29 3 360 238 236 249 250 255 247 245 251 247 261 294 169 134 76 63 272 274 261 264 256 171 148 146 143 138 138 129 122 115 102 93 82 59 33 12
282 284 291 298 303 312 320 327 333 339 343 345 354 9 17 5 358 336 331 317 303 303 294 287 272 249 250 242 247 298 6 297 259 262 309 332 341 350 342 338 338 315 320 316 312 360 337 294 122 84 57 317 265 222 225 232 238 249 242 247 253 238 283 293 127 90 20 7 268 266 263 273 217 151 145 145 135 128 134 128 121 115 108 108 87 61 25 3
278 280 286 292 299 309 316 326 331 336 342 346 356 7 4 357 350 343 336 299 297 302 284 275 239 228 250 228 228 245 296 283 199 283 325 347 9 350 326 329 337 309 310 350 29 354 304 282 96 66 90 329 284 241 236 240 236 242 253 261 254 122 60 249 238 10 329 291 265 277 272 269 127 128 122 127 129 126 130 128 124 122 118 116 91 58 21 3
275 277 281 287 295 303 311 322 326 332 343 350 356 358 355 350 344 343 337 295 279 288 276 252 194 194 211 200 215 214 249 273 240 287 309 342 353 326 323 354 325 295 321 40 8 295 279 308 39 341 236 317 308 288 271 263 267 265 276 269 237 90 85 241 290 321 300 276 266 283 273 230 161 162 153 133 139 138 143 146 139 138 129 103 73 45 14 357
273 275 278 284 290 298 307 314 317 329 341 348 351 351 350 343 339 344 340 293 264 260 242 214 193 200 205 208 215 189 264 263 244 280 299 325 344 356 332 312 266 291 3 19 325 284 276 7 36 333 298 321 297 289 300 121 275 283 281 115 120 73 284 267 287 304 300 279 232 239 294 258 175 171 171 156 158 157 159 158 146 141 124 91 66 33 3 348
270 272 276 280 285 292 301 306 309 324 338 346 348 345 342 337 336 343 347 294 263 216 152 179 190 194 201 208 214 213 282 255 259 292 299 310 337 17 341 278 194 270 2 5 300 281 261 98 69 327 288 304 276 273 273 114 293 285 222 125 82 257 260 257 268 284 277 256 230 180 274 275 206 178 177 171 170 167 164 159 149 141 111 84 72 25 356 346
266 270 274 278 282 285 290 295 302 317 333 341 342 337 335 333 333 341 359 275 262 163 125 167 181 190 198 192 187 180 190 257 309 305 256 194 24 33 311 270 251 245 90 26 302 249 180 112 108 219 249 284 272 267 215 109 341 244 208 189 154 256 257 250 250 243 238 261 260 220 213 254 261 206 175 169 167 169 167 165 153 134 104 86 67 19 353 347
263 267 272 276 279 279 281 283 290 306 317 325 331 328 329 329 327 342 17 305 281 129 128 157 169 203 197 196 208 198 282 331 323 303 176 189 353 66 239 275 310 298 96 71 282 257 139 138 174 176 99 266 249 203 176 106 176 203 233 249 246 252 251 247 245 241 247 269 263 221 195 241 269 202 159 165 170 177 173 164 149 127 102 68 42 8 349 351
260 265 269 272 275 274 273 275 278 291 299 312 319 314 322 322 326 5 68 288 50 108 118 148 154 190 184 228 226 211 252 245 219 262 190 285 302 199 242 284 312 295 262 219 241 268 126 129 143 131 151 236 183 143 137 129 212 296 330 294 266 252 246 240 235 240 251 255 256 232 197 221 267 166 155 176 187 186 173 153 138 122 90 45 29 359 352 357
257 262 266 267 269 267 264 264 266 272 282 301 303 302 317 314 328 46 212 252 14 76 106 142 141 153 184 242 212 186 205 208 200 226 198 248 269 240 260 281 284 272 263 241 247 254 136 124 158 186 202 207 119 146 171 201 250 337 333 295 283 263 249 228 217 227 250 253 266 251 212 215 253 197 171 191 183 157 153 140 128 117 76 33 19 3 359 359
256 259 261 262 262 260 258 254 251 256 265 281 284 292 309 308 44 188 227 263 2 127 127 138 146 158 193 241 181 176 194 206 184 180 205 194 222 236 256 277 274 294 281 263 261 258 149 169 208 181 185 103 83 196 199 207 238 25 321 293 313 295 269 247 229 70 215 243 265 24 12 267 233 227 172 155 113 118 132 132 132 128 50 24 16 4 360 356
253 254 256 258 257 253 250 246 241 244 249 254 255 272 316 294 202 221 229 20 360 202 157 138 172 190 184 72 284 217 196 194 177 178 198 144 187 219 200 206 154 354 284 247 301 299 220 214 155 101 135 163 135 35 227 224 186 193 246 306 329 325 314 293 350 129 226 246 186 77 31 330 237 245 170 154 133 121 124 119 115 88 36 24 14 3 356 351
249 251 252 252 253 250 245 242 240 237 236 224 210 200 86 205 222 212 206 234 294 184 112 86 96 114 112 98 249 199 82 219 186 167 140 121 193 250 232 199 143 179 258 311 353 303 280 308 127 119 136 180 172 154 202 220 148 204 208 114 208 334 317 278 277 248 240 250 205 91 24 306 256 263 173 151 136 126 120 113 95 56 40 22 10 2 350 344
247 249 250 248 249 249 243 239 236 231 222 206 194 173 173 220 241 219 216 220 216 154 97 84 93 124 142 213 228 165 151 245 189 139 94 138 167 246 242 224 170 178 228 349 322 253 265 291 200 171 162 169 179 149 155 158 136 213 151 116 172 184 242 255 274 255 266 275 245 80 21 263 253 315 135 128 130 129 119 109 82 48 36 20 6 358 345 339
249 248 247 246 246 245 243 237 231 225 212 195 186 190 199 220 234 233 238 232 184 173 130 106 139 164 224 227 213 182 199 245 163 113 195 186 192 217 201 196 192 178 150 165 253 209 235 254 197 128 135 151 160 127 128 112 81 254 93 93 221 205 223 259 218 202 272 297 271 157 218 238 231 348 116 124 136 133 121 96 59 34 19 13 2 352 345 338
252 252 250 247 243 241 241 236 228 221 206 186 180 218 216 222 212 206 224 177 151 146 119 159 186 197 253 226 204 204 182 223 133 99 218 206 215 223 203 185 184 182 174 174 224 198 244 263 178 99 16 88 90 84 98 93 142 145 87 156 227 199 122 21 293 337 46 302 273 174 242 272 61 277 172 146 166 151 123 79 43 19 8 5 356 350 343 337
254 258 259 253 243 238 237 233 226 214 200 186 208 225 218 228 227 227 192 125 116 112 113 267 194 187 241 249 204 191 156 311 170 150 227 212 222 213 198 188 176 186 194 179 218 210 213 269 223 165 341 106 90 32 355 44 113 128 162 193 204 90 95 114 309 350 17 275 263 172 229 245 178 244 190 168 189 169 123 81 41 1 4 357 347 346 338 334
251 261 264 257 248 239 232 231 222 205 191 190 234 234 231 232 230 228 179 146 133 97 141 232 204 182 216 245 231 164 155 171 165 175 220 210 221 185 170 179 187 198 201 159 191 290 83 272 250 67 27 120 88 12 329 15 63 114 178 189 110 139 219 131 139 260 249 271 276 258 256 243 217 211 177 182 189 163 122 71 35 348 360 350 343 343 336 335
247 258 260 255 249 241 233 231 214 195 186 204 229 229 232 233 236 234 202 165 157 145 180 226 215 213 219 214 221 134 163 184 171 176 202 201 218 175 164 176 181 184 152 136 175 277 86 224 257 346 352 72 90 188 192 189 59 67 31 339 92 165 204 165 159 185 230 270 285 291 289 260 218 198 165 169 164 137 126 7 3 337 342 342 342 342 338 336
240 247 249 241 242 240 229 219 204 188 193 223 222 227 237 233 236 231 216 198 182 185 208 217 204 226 240 229 238 192 188 209 199 197 199 191 214 199 183 175 149 140 89 71 75 44 96 213 241 328 328 252 183 193 195 184 163 144 171 198 197 160 137 226 232 144 195 245 263 287 287 265 192 156 141 145 145 143 143 117 274 297 329 339 342 341 338 334
230 234 242 227 228 229 207 194 192 192 212 234 228 237 243 239 231 218 210 209 212 216 225 231 218 230 245 243 240 209 201 225 210 214 234 206 205 230 199 171 145 144 111 52 358 186 159 211 228 243 230 225 219 193 186 164 159 179 191 190 196 182 140 231 250 195 171 227 214 250 276 269 200 164 140 138 144 143 130 141 237 286 344 343 339 338 333 330
220 225 238 215 214 208 189 181 198 205 216 228 230 236 235 237 233 204 193 201 213 221 229 239 236 235 245 245 236 213 208 241 222 208 228 213 201 218 198 161 154 152 141 101 223 186 110 120 236 254 240 226 233 120 106 125 140 202 222 202 188 184 174 200 236 233 140 228 218 230 276 279 179 153 148 136 144 157 169 254 237 9 4 343 336 335 331 329
212 216 222 208 203 191 181 191 215 206 226 233 233 239 234 231 216 189 182 188 201 205 214 229 224 226 235 228 226 229 210 244 247 222 222 235 211 204 105 155 159 150 137 142 176 131 96 90 224 269 284 336 103 83 90 111 105 255 239 212 200 203 193 195 220 141 120 226 203 202 262 267 147 151 151 146 167 181 204 327 55 31 357 341 336 334 330 328
213 221 222 205 191 183 185 220 208 208 233 230 235 243 237 235 216 198 193 182 184 187 205 230 220 218 223 197 210 226 198 221 255 225 211 230 209 87 91 158 167 164 163 194 171 160 168 163 138 289 299 280 250 281 272 205 184 229 227 203 215 221 188 165 173 103 246 238 209 214 252 247 178 186 166 162 187 210 297 4 50 24 350 341 336 332 328 326
210 224 226 205 189 185 202 228 214 227 229 219 238 241 236 242 222 214 217 201 198 202 211 237 215 207 212 185 209 230 209 214 247 228 188 211 207 57 90 167 177 179 186 188 167 165 171 182 162 187 255 256 259 270 247 196 185 219 221 200 207 210 199 197 175 177 234 235 207 216 243 248 215 194 196 206 240 290 317 355 36 11 345 339 333 328 328 326
197 204 208 189 190 200 221 233 232 256 232 216 241 235 227 240 227 215 216 219 219 216 224 240 211 196 205 185 214 243 227 215 226 233 210 183 181 350 200 188 180 166 156 157 161 156 132 243 204 215 236 242 255 273 195 137 168 196 206 203 206 208 206 201 196 216 224 238 237 231 238 259 260 245 258 279 280 289 304 24 24 351 337 335 329 326 327 325
199 209 194 163 185 213 231 235 230 238 234 226 240 235 224 228 226 208 204 214 223 217 226 242 210 201 210 187 211 245 232 215 222 236 242 218 158 23 228 182 161 163 149 156 165 143 100 242 218 225 240 246 260 272 176 156 197 214 204 201 207 210 205 203 215 222 199 176 253 247 233 249 261 262 264 268 272 279 343 56 7 332 330 328 325 326 324 321
206 218 208 194 190 202 214 219 216 221 234 232 236 251 240 227 222 209 198 208 223 209 210 236 220 215 215 201 209 243 232 217 224 232 236 222 148 115 181 184 185 187 147 151 189 141 143 248 221 219 244 251 258 262 242 219 236 236 215 200 209 212 206 212 223 226 206 215 249 259 252 249 258 263 256 265 295 9 97 46 320 319 326 325 327 326 321 319
210 223 213 202 209 214 204 201 199 209 226 227 229 242 242 234 233 227 189 178 231 213 200 228 231 215 213 213 211 231 233 215 225 233 213 192 194 164 170 231 196 191 164 150 217 155 154 255 220 214 252 258 251 256 261 260 263 258 239 214 217 224 218 220 230 230 226 236 251 261 264 265 264 261 271 287 308 118 115 328 314 322 328 328 326 321 317 317
208 210 204 199 219 229 215 196 189 204 221 220 229 234 229 233 237 234 204 191 214 205 193 224 237 215 204 215 213 228 235 214 226 240 190 165 211 183 178 211 157 169 183 166 199 198 195 236 160 188 258 265 247 246 260 264 266 270 261 234 226 237 236 232 234 232 229 241 251 254 261 268 266 261 275 273 238 134 51 320 320 325 328 327 321 317 315 313
214 214 212 207 228 228 217 202 186 198 220 216 221 224 219 229 232 229 222 217 221 219 194 216 235 227 207 219 218 228 235 220 232 246 209 192 213 195 189 183 148 155 188 178 181 200 201 222 92 135 247 262 224 214 243 276 283 276 267 247 230 234 237 234 233 229 223 235 247 250 251 260 266 266 248 229 176 135 109 324 324 319 319 320 316 313 310 306
216 218 218 218 236 225 216 213 193 204 226 216 208 214 220 228 226 217 230 233 227 229 228 223 223 219 225 231 227 233 238 230 235 245 214 203 205 186 182 175 165 165 173 175 189 194 186 202 167 152 220 284 80 147 156 14 308 274 261 234 221 226 233 237 238 232 225 227 238 241 240 252 272 181 222 213 141 123 100 345 319 309 310 312 310 302 297 301